Regional Weather Roundup
Issued by NWS

Home | Current Version | Previous Version | Graphics & Text | Print | Product List | Glossary Off
Versions: 1 2 3 4 5 6 7 8 9 10 11 12 13 14 15 16 17 18 19 20 21 22 23 24 25 26 27 28 29 30 31 32 33 34 35 36 37 38 39 40 41 42 43 44 45 46 47 48 49 50

000
ASUS43 KLSX 020707
RWRMO

WEATHER SUMMARY FOR MISSOURI
NATIONAL WEATHER SERVICE SPRINGFIELD MO
200 AM CDT SAT AUG 02 2014

NOTE: "FAIR" INDICATES FEW OR NO CLOUDS BELOW 12,000 FEET WITH NO
       SIGNIFICANT WEATHER AND/OR OBSTRUCTIONS TO VISIBILITY.
       CURRENT SKY AND/OR WEATHER CONDITIONS ARE NOT AVAILABLE FOR
       CHILLICOTHE AND FARMINGTON.

MOZ001>031-035>038-043-044-053-054-020800-
...NORTHERN AND WESTERN MISSOURI...

CITY           SKY/WX    TMP DP  RH WIND       PRES   REMARKS
KANSAS CTY INT CLEAR     69  62  78 SE5       30.11S
KANSAS C DTWN  CLEAR     71  61  70 E5        30.09F
LEE`S SUMMIT   CLEAR     70  61  73 E5        30.11S
ST JOSEPH      CLEAR     63  61  93 NW3       30.11S
CHILLICOTHE      N/A     64  61  90 N3        30.12S
KIRKSVILLE     CLEAR     63  60  90 E3        30.12S

$$
MOZ066>068-077>081-088>096-101>105-020800-
...SOUTHWEST MISSOURI...

CITY           SKY/WX    TMP DP  RH WIND       PRES   REMARKS
SPRINGFIELD    CLOUDY    70  64  81 SE3       30.09S
JOPLIN         CLEAR     66  64  93 CALM      30.09S

$$
MOZ032>034-039>042-045>050-055>058-069>072-020800-
...CENTRAL MISSOURI...

CITY           SKY/WX    TMP DP  RH WIND       PRES   REMARKS
COLUMBIA       CLEAR     61  61 100 CALM      30.10F FOG
JEFFERSON CITY CLEAR     65  61  87 CALM      30.09F
ROLLA          CLEAR     64  61  90 E6        30.09F
SEDALIA        CLEAR     66  60  81 SE3       30.11S
WHITEMAN AFB   CLEAR     64  53  68 CALM      30.10S
OSAGE BEACH      N/A     63  57  82 NE5       30.10S

$$
MOZ051-052-059>065-020800-
...EAST CENTRAL MISSOURI...

CITY           SKY/WX    TMP DP  RH WIND       PRES   REMARKS
ST LOUIS INTL  PTCLDY    66  60  81 N3        30.09F
SPIRIT OF STL  FOG       63  61  94 CALM      30.08S VSB 1/4
ST CHARLES     MOCLDY    61  59  93 CALM      30.09S

$$
MOZ072>076-082>087-097>100-106>115-020800-
...SOUTH CENTRAL AND SOUTHEAST MISSOURI...

CITY           SKY/WX    TMP DP  RH WIND       PRES   REMARKS
CAPE GIRARDEAU CLOUDY    70  64  81 N3        30.06F
FARMINGTON     MOCLDY    64  61  88 CALM      30.11F
POPLAR BLUFF   CLEAR     67  63  87 NW3       30.05F FOG
WEST PLAINS    PTCLDY    64  61  90 CALM      30.11S

$$



USA.gov is the U.S. government's official web portal to all federal, state and local government web resources and services.